Location: Ariel
(45.9570°N, 122.5700°W)
Time: 09:07:15
(UTC-07:00)

Transit 2A Rocket - Pass Details

Date: 24 July 2019
Orbit: 590 x 913 km, 66.7° (Epoch: 20 August)

Event Time Altitude Azimuth Distance (km) Brightness Sun altitude
Exits shadow 04:33:42 12° 243° (WSW) 2,386 6.9 -10.5°
Maximum altitude 04:38:49 42° 311° (NW) 1,200 6.0 -9.9°
Drops below altitude 10° 04:44:05 10° 22° (NNE) 2,394 8.7 -9.2°
Sets 04:46:34 0° 30° (NNE) 3,275 9.9 -8.9°
